Regional Weather Roundup
Issued by NWS

Home | Current Version | Previous Version | Text Only | Print | Product List | Glossary Off
Versions: 1 2 3 4 5 6 7 8 9 10 11 12 13 14 15 16 17 18 19 20 21 22 23 24 25 26 27 28 29 30 31 32 33 34 35 36 37 38 39 40 41 42 43 44 45 46 47 48 49 50

000
ASUS43 KBIS 191920
RWRND

NORTH DAKOTA REGIONAL WEATHER ROUNDUP
NATIONAL WEATHER SERVICE BISMARCK ND
200 PM CDT FRI SEP 19 2014

NOTE: "FAIR" INDICATES FEW OR NO CLOUDS BELOW 12,000 FEET WITH NO
SIGNIFICANT WEATHER AND/OR OBSTRUCTIONS TO VISIBILITY.


NDZ001>003-009>011-017-192000-
NORTHWEST NORTH DAKOTA

CITY           SKY/WX    TMP DP  RH WIND       PRES   REMARKS
WILLISTON      SUNNY     79  48  33 W23G32    29.67R
MINOT          SUNNY     81  47  30 SW23G31   29.56S
MINOT AFB      SUNNY     77  50  38 W18G29    29.55F
$$

NDZ018>021-031>035-040>046-192000-
SOUTHWEST NORTH DAKOTA

CITY           SKY/WX    TMP DP  RH WIND       PRES   REMARKS
BISMARCK       SUNNY     86  52  30 W21       29.65S
DICKINSON      SUNNY     78  49  35 W24       29.72S
GARRISON         N/A     82  49  31 W21G31    29.61S
HETTINGER ARPT SUNNY     80  47  31 W22G28    29.77R
$$

NDZ004>008-012>016-024-026-027-054-192000-
NORTHEAST NORTH DAKOTA

CITY           SKY/WX    TMP DP  RH WIND       PRES   REMARKS
GRAND FORKS    PTSUNNY   75  66  73 S16       29.52F
GRND FRKS AFB  PTSUNNY   78  65  63 S12       29.52F
DEVILS LAKE    SUNNY     79  57  47 W14       29.53F
$$

NDZ022-023-025-028>030-036>039-047>053-192000-
SOUTHEAST NORTH DAKOTA

CITY           SKY/WX    TMP DP  RH WIND       PRES   REMARKS
FARGO          CLOUDY    73  64  73 S15       29.59F
JAMESTOWN      MOSUNNY   79  61  53 W13G22    29.58S
$$



USA.gov is the U.S. government's official web portal to all federal, state and local government web resources and services.